This is the latest recevied weather packets stored in our database for station/object WV6L-13. If no packets are shown the sender has not sent any weather packets the latest 1 day(s).
| Time | Temp. | Humidity | Pressure | Rain* | Wind** | Luminosity | Snow |
|---|---|---|---|---|---|---|---|
| 1778030993 | 21.67° C | 28% | 921.6 hPa | - | 3.58 m/s, 218° | - | - |
| 1778030693 | 21.11° C | 28% | 921.6 hPa | - | 0.89 m/s, 225° | - | - |
| 1778030393 | 21.67° C | 28% | 921.5 hPa | - | 1.79 m/s, 217° | - | - |
| 1778030092 | 21.67° C | 28% | 921.6 hPa | - | 4.92 m/s, 223° | - | - |
| 1778029792 | 21.67° C | 29% | 921.5 hPa | - | 3.58 m/s, 212° | - | - |
| 1778029493 | 21.11° C | 30% | 921.6 hPa | - | 2.68 m/s, 220° | - | - |
| 1778029193 | 21.67° C | 29% | 921.5 hPa | - | 2.68 m/s, 228° | - | - |
| 1778028893 | 22.22° C | 29% | 921.6 hPa | - | 4.47 m/s, 222° | - | - |
| 1778028593 | 21.67° C | 29% | 921.3 hPa | - | 0.89 m/s, 112° | - | - |
| 1778028292 | 21.67° C | 29% | 921.4 hPa | - | 2.68 m/s, 256° | - | - |
| 1778027993 | 21.11° C | 30% | 921.4 hPa | - | 2.68 m/s, 191° | - | - |
| 1778027693 | 22.22° C | 29% | 921.4 hPa | - | 2.24 m/s, 199° | - | - |
| 1778027393 | 21.11° C | 30% | 921.4 hPa | - | 0.89 m/s, 180° | - | - |
| 1778027093 | 21.67° C | 30% | 921.5 hPa | - | 1.79 m/s, 270° | - | - |
| 1778026792 | 21.67° C | 30% | 921.3 hPa | - | 2.24 m/s, 211° | - | - |
| 1778026493 | 21.11° C | 30% | 921.5 hPa | - | 1.79 m/s, 144° | - | - |
| 1778026193 | 21.11° C | 31% | 921.3 hPa | - | 4.02 m/s, 146° | - | - |
| 1778025893 | 22.22° C | 29% | 921.3 hPa | - | 1.79 m/s, 186° | - | - |
| 1778025593 | 21.11° C | 30% | 921.3 hPa | - | 1.34 m/s, 185° | - | - |
| 1778025293 | 21.11° C | 31% | 921.4 hPa | - | 1.34 m/s, 195° | - | - |
| 1778024992 | 21.67° C | 30% | 921.2 hPa | - | 2.68 m/s, 262° | - | - |
| 1778024693 | 21.11° C | 31% | 921.2 hPa | - | 4.47 m/s, 312° | - | - |
| 1778024393 | 21.11° C | 31% | 921.2 hPa | - | 2.68 m/s, 239° | - | - |
| 1778024093 | 22.22° C | 30% | 921.3 hPa | - | 2.68 m/s, 253° | - | - |
| 1778023792 | 21.67° C | 30% | 921.1 hPa | - | 2.24 m/s, 254° | - | - |
* Rain since midnight (hover to see other rain measurements)
** Current wind speed in m/s (hover to see current wind gust speed)